[[{"header":{"parameterUnit":"m.s-1","parameterCategory":1,"la1":30.2991,"la2":30.254,"lo1":-89.0895,"lo2":-89.0444,"dy":0.0017,"dx":0.0017,"nx":28,"ny":28,"refTime":"2023-08-06T03:00:00:Z","depth":0,"parameterNumber":2,"parameterNumberName":"U-component_of_WINDS"},"data":[0,0,0,0,0,0,0,0,0,0,0,0,0,0,0,0,0,0,0,0,0,0,0,0,0,0,0,0,0,0,0,0,0,0,0,0,0,0,0,0,0,0,0,0,0,0,0,0,0,0,0,0,0,0,0,0,0,0,4.6643,4.6644,0,4.6718,4.6719,4.672,4.668,4.6678,4.6676,4.6674,4.6753,4.6757,4.6761,0,0,0,0,0,0,0,0,0,0,0,0,0,4.647,4.6473,4.6643,4.6644,4.6645,4.6718,4.6719,4.672,4.6681,4.6678,4.6676,4.6674,4.6752,4.6757,4.6761,0,0,0,0,0,0,0,0,0,0,0,0,0,4.6545,4.6474,4.6643,4.6634,4.6634,4.6718,4.6719,4.672,4.6681,4.6678,4.6675,4.6672,4.675,4.6756,4.6762,4.6859,0,0,4.678,4.6783,0,0,0,0,0,0,0,0,4.6541,4.6551,4.6635,4.6635,4.6635,4.6687,4.6687,4.6767,4.6682,4.6664,4.6674,4.6671,4.6734,4.6741,4.6762,4.6863,4.6866,4.6781,4.6784,4.6787,4.6789,0,0,0,0,0,0,0,4.6536,4.6548,4.6673,4.6636,4.6636,4.6628,4.6635,4.6702,4.6715,4.6665,4.6662,4.6671,4.6733,4.6756,4.6763,4.6867,4.6781,4.6786,4.679,4.6792,4.7054,4.7057,0,0,0,0,0,0,4.653,4.6544,4.6671,4.6675,4.6579,4.6633,4.6641,4.6673,4.6714,4.6717,4.6674,4.6669,4.6747,4.6756,4.6766,4.6883,4.6787,4.6792,4.6796,4.7051,4.7055,4.7059,0,0,0,0,0,0,4.6527,4.6542,4.6668,4.6609,4.6624,4.6639,4.6676,4.6676,4.6699,4.6721,4.6723,4.6695,4.6745,4.6757,4.6836,4.6886,4.6795,4.6801,4.7047,4.7052,4.7057,4.7119,0,0,0,0,0,0,4.6522,4.6541,4.6577,4.661,4.6627,4.6736,4.6679,4.668,4.6709,4.6704,4.6741,4.6744,4.6744,4.6828,4.6842,4.6892,4.6805,4.7042,4.7049,4.7055,4.7113,4.7126,4.7137,0,0,0,0,0,4.6516,4.6592,4.6579,4.6595,4.6673,4.6739,4.6749,4.6747,4.6713,4.675,4.6765,4.6743,4.6878,4.6836,4.6852,4.6905,4.7039,4.7047,4.7055,4.7107,4.7123,4.7136,0,0,0,0,0,0,4.6565,4.6596,4.6582,4.6671,4.6703,4.6732,4.6779,4.6764,4.6806,4.68,4.6796,4.6804,4.6887,4.6903,4.6857,4.7002,4.6953,4.6965,4.6988,4.7003,4.7015,4.701,4.681,0,0,0,0,0,4.6586,4.6637,4.6661,4.6737,4.6754,4.6764,4.6793,4.6788,4.6821,4.6835,4.6854,4.6888,4.6938,4.6971,4.7019,4.7115,4.7123,4.7159,4.7171,4.718,4.7191,4.7244,4.7261,4.7084,4.7084,4.7083,0,0,4.663,4.6653,4.6686,4.6748,4.6772,4.6825,4.6775,4.6834,4.6874,4.6844,4.692,4.6936,4.6973,4.7062,4.7102,4.7078,4.7241,4.719,4.7198,4.7203,4.7254,4.7271,4.7286,4.7089,4.7088,4.7087,0,0,4.6738,4.676,4.6827,4.6852,4.6889,4.6896,4.6912,4.6944,4.6954,4.703,4.7009,4.7057,4.7143,4.7171,4.7196,4.7317,4.7299,4.7332,4.7395,4.7448,4.7462,4.7474,4.7519,4.7535,4.7342,4.7342,4.7342,0,4.6789,4.6868,4.6863,4.6924,4.6952,4.6927,4.6995,4.702,4.7071,4.7092,4.7065,4.7173,4.7196,4.7292,4.7321,4.7342,4.7362,4.7328,4.746,4.7473,4.7484,4.7527,4.7543,4.7346,4.7346,4.7345,4.7345,0,4.6929,4.6984,4.7034,4.7083,4.7117,4.7181,4.7188,4.7223,4.7216,4.7226,4.7305,4.7332,4.7385,4.7407,4.74,4.7502,4.7487,4.746,4.7412,4.7505,4.7545,4.7561,4.7352,4.735,4.7349,4.7348,0,0,4.707,4.7117,4.7135,4.7158,4.7198,4.7241,4.7305,4.7356,4.7387,4.7423,4.7478,4.7552,4.7528,4.7557,4.7553,4.7599,4.7695,4.7567,4.7568,4.7591,4.7811,4.7832,4.785,4.7683,4.7686,4.7688,4.7808,0,4.7182,4.7293,4.7291,4.7394,4.7446,4.7423,4.7479,4.751,4.7521,4.7568,4.758,4.7633,4.7596,4.7614,4.7658,4.7674,4.7739,4.7665,4.7735,4.7737,4.7727,4.7871,4.7893,4.8004,4.7823,4.7826,4.7828,0,4.7328,4.7369,4.7477,4.751,4.7532,4.7582,4.763,4.7674,4.7709,4.7714,4.7748,4.7737,4.7803,4.7752,4.7844,4.7794,4.7822,4.7835,4.7839,4.7846,4.7789,4.7883,4.804,4.8057,4.7852,4.785,4.7849,0,4.7422,4.7504,4.758,4.76,4.764,4.7676,4.7695,4.7727,4.7759,4.7801,4.7822,4.7871,4.7898,4.7937,4.7942,4.7904,4.8035,4.7984,4.8042,4.8042,4.8071,4.807,4.8236,4.8088,4.8088,4.8087,4.8087,0,4.7548,4.7615,4.7623,4.767,4.7745,4.7743,4.7818,4.7833,4.7863,4.7913,4.7896,4.7944,4.7946,4.7995,4.7999,4.8075,4.8088,4.8095,4.8095,4.8097,4.8096,4.8116,4.8109,4.8092,4.8091,4.809,4.8089,0,4.7666,4.7674,4.7755,4.7787,4.7796,4.7851,4.7878,4.7924,4.7933,4.7997,4.8012,4.8028,4.8085,4.8093,4.816,4.8163,4.8255,4.8247,4.8243,4.8242,4.8301,4.8296,4.8487,4.8512,4.8346,4.8348,4.8349,0,4.7747,4.7798,4.7836,4.7868,4.7888,4.794,4.7973,4.7973,4.8007,4.8052,4.8092,4.8148,4.8192,4.8285,4.8303,4.8355,4.8349,4.8412,4.8356,4.8357,4.8351,4.8349,4.8355,4.8423,4.8425,4.8426,4.8428,0,4.789,4.7891,4.7938,4.7986,4.8025,4.8064,4.81,4.8127,4.8132,4.8172,4.823,4.8265,4.8333,4.8389,4.8441,4.8461,4.8446,4.8445,4.8461,4.8464,4.8461,4.8465,4.8274,4.8441,4.8439,4.8438,4.8438,4.8437,4.7992,4.8038,4.8071,4.8124,4.8152,4.8186,4.8231,4.8246,4.8294,4.835,4.8347,4.8412,4.8447,4.8514,4.8538,4.859,4.8569,4.8592,4.8599,4.8605,4.8611,4.8452,4.8599,4.8598,4.8598,4.8598,4.8597,0,4.8136,4.8156,4.8205,4.8256,4.8298,4.828,4.8319,4.8356,4.8413,4.8446,4.8491,4.8559,4.8613,4.8635,4.8689,4.8726,4.8721,4.874,4.8738,4.8744,4.8626,4.8607,4.8744,4.8744,4.8744,4.8744,4.8744,4.8744,4.8215,4.8291,4.8297,4.8387,4.8407,4.847,4.8494,4.8527,4.8554,4.863,4.8675,4.8689,4.8719,4.8775,4.8825,4.883,4.8851,4.8874,4.8877,4.8766,4.8752,4.8738,4.872,4.8878,4.8879,4.899,4.8991,4.8992]},{"header":{"parameterUnit":"m.s-1","parameterCategory":1,"la1":30.2991,"la2":30.254,"lo1":-89.0895,"lo2":-89.0444,"dy":0.0017,"dx":0.0017,"nx":28,"ny":28,"refTime":"2023-08-06T03:00:00:Z","depth":0,"parameterNumber":3,"parameterNumberName":"V-component_of_WINDS"},"data":[0,0,0,0,0,0,0,0,0,0,0,0,0,0,0,0,0,0,0,0,0,0,0,0,0,0,0,0,0,0,0,0,0,0,0,0,0,0,0,0,0,0,0,0,0,0,0,0,0,0,0,0,0,0,0,0,0,0,-0.1324,-0.1324,0,-0.1331,-0.1331,-0.1331,-0.1342,-0.1342,-0.1342,-0.1342,-0.135,-0.135,-0.135,0,0,0,0,0,0,0,0,0,0,0,0,0,-0.1322,-0.1322,-0.1324,-0.1324,-0.1324,-0.1331,-0.1331,-0.1331,-0.1342,-0.1342,-0.1342,-0.1343,-0.135,-0.135,-0.135,0,0,0,0,0,0,0,0,0,0,0,0,0,-0.1325,-0.1322,-0.1324,-0.133,-0.1331,-0.1331,-0.1331,-0.1331,-0.1342,-0.1342,-0.1342,-0.1343,-0.135,-0.135,-0.135,-0.1344,0,0,-0.135,-0.135,0,0,0,0,0,0,0,0,-0.1325,-0.1325,-0.1329,-0.133,-0.1331,-0.1336,-0.1333,-0.1335,-0.1342,-0.1338,-0.1342,-0.1343,-0.1345,-0.1345,-0.1346,-0.1345,-0.1345,-0.135,-0.135,-0.135,-0.135,0,0,0,0,0,0,0,-0.1325,-0.1325,-0.1327,-0.1329,-0.133,-0.1333,-0.1334,-0.1334,-0.134,-0.1338,-0.1339,-0.134,-0.1345,-0.1346,-0.1346,-0.1345,-0.135,-0.135,-0.135,-0.135,-0.1341,-0.1341,0,0,0,0,0,0,-0.1324,-0.1325,-0.1327,-0.1327,-0.1329,-0.1333,-0.1334,-0.1334,-0.134,-0.1341,-0.1339,-0.134,-0.1346,-0.1346,-0.1347,-0.1341,-0.135,-0.135,-0.135,-0.1341,-0.1341,-0.1341,0,0,0,0,0,0,-0.1323,-0.1324,-0.1326,-0.1326,-0.1327,-0.1333,-0.1333,-0.1334,-0.1334,-0.1341,-0.1342,-0.1339,-0.1346,-0.1347,-0.1345,-0.1342,-0.135,-0.135,-0.1341,-0.1341,-0.1341,-0.133,0,0,0,0,0,0,-0.1323,-0.1323,-0.1321,-0.1326,-0.1327,-0.1324,-0.1332,-0.1334,-0.1334,-0.1335,-0.134,-0.1341,-0.1346,-0.1345,-0.1345,-0.1342,-0.135,-0.1342,-0.1341,-0.1341,-0.1331,-0.1329,-0.1328,0,0,0,0,0,-0.1323,-0.1317,-0.1321,-0.1321,-0.1324,-0.1324,-0.1324,-0.133,-0.1334,-0.1332,-0.1336,-0.1341,-0.1342,-0.1345,-0.1345,-0.1342,-0.1342,-0.1341,-0.1341,-0.1331,-0.1329,-0.1328,0,0,0,0,0,0,-0.1311,-0.1318,-0.1322,-0.1317,-0.132,-0.1326,-0.1323,-0.1328,-0.1329,-0.133,-0.1337,-0.1338,-0.1336,-0.1339,-0.1342,-0.1337,-0.1343,-0.1342,-0.1336,-0.1334,-0.1333,-0.1332,-0.135,0,0,0,0,0,-0.1308,-0.1308,-0.1314,-0.1309,-0.131,-0.1316,-0.1317,-0.1321,-0.1324,-0.1325,-0.1329,-0.1332,-0.1333,-0.1334,-0.1335,-0.1331,-0.1333,-0.1329,-0.1328,-0.1327,-0.1326,-0.1326,-0.1324,-0.1339,-0.1339,-0.1339,0,0,-0.1302,-0.1305,-0.1304,-0.1307,-0.1309,-0.1309,-0.1317,-0.1316,-0.1316,-0.1325,-0.1324,-0.1327,-0.1331,-0.1329,-0.1328,-0.1331,-0.1323,-0.1326,-0.1325,-0.1325,-0.1325,-0.1324,-0.1322,-0.1338,-0.1338,-0.1338,0,0,-0.129,-0.1292,-0.1289,-0.1292,-0.1296,-0.13,-0.1299,-0.1305,-0.1307,-0.1306,-0.1313,-0.1314,-0.1315,-0.1318,-0.132,-0.1311,-0.1316,-0.1311,-0.1304,-0.1304,-0.1302,-0.1302,-0.1299,-0.1298,-0.131,-0.131,-0.131,0,-0.1281,-0.1281,-0.1287,-0.1286,-0.1287,-0.1296,-0.1293,-0.1296,-0.13,-0.1301,-0.1304,-0.1307,-0.131,-0.1309,-0.1307,-0.1308,-0.1308,-0.131,-0.1302,-0.1301,-0.13,-0.1298,-0.1297,-0.131,-0.131,-0.131,-0.131,0,-0.1271,-0.127,-0.1267,-0.1272,-0.1273,-0.1271,-0.1278,-0.1278,-0.1283,-0.1287,-0.1287,-0.1291,-0.1294,-0.1294,-0.1298,-0.1294,-0.1296,-0.1301,-0.1306,-0.1298,-0.1296,-0.1296,-0.1309,-0.1309,-0.1309,-0.1309,0,0,-0.125,-0.1259,-0.1258,-0.126,-0.1266,-0.1266,-0.1265,-0.1268,-0.1269,-0.1272,-0.1272,-0.1274,-0.1279,-0.1281,-0.1285,-0.1285,-0.1279,-0.129,-0.129,-0.1288,-0.1276,-0.1272,-0.1271,-0.1282,-0.1282,-0.1282,-0.1275,0,-0.124,-0.1239,-0.1245,-0.1242,-0.1243,-0.1252,-0.1251,-0.1255,-0.1259,-0.1261,-0.1266,-0.1267,-0.1273,-0.1274,-0.1274,-0.1279,-0.1276,-0.128,-0.1283,-0.1283,-0.1282,-0.127,-0.1266,-0.126,-0.1275,-0.1275,-0.1274,0,-0.1227,-0.123,-0.1227,-0.1234,-0.1235,-0.1234,-0.1238,-0.1239,-0.1244,-0.1248,-0.1251,-0.1256,-0.1257,-0.1263,-0.1264,-0.1267,-0.1269,-0.1272,-0.1272,-0.1272,-0.1278,-0.1271,-0.1258,-0.1257,-0.1273,-0.1273,-0.1273,0,-0.1214,-0.1217,-0.1216,-0.1218,-0.1226,-0.1225,-0.1229,-0.1234,-0.1236,-0.1239,-0.1241,-0.1245,-0.1247,-0.125,-0.1257,-0.126,-0.1258,-0.1264,-0.1262,-0.1261,-0.1261,-0.1261,-0.1248,-0.1261,-0.1261,-0.1261,-0.1261,0,-0.1202,-0.12,-0.121,-0.121,-0.1208,-0.1216,-0.1215,-0.1219,-0.1224,-0.1226,-0.1233,-0.1234,-0.1244,-0.1246,-0.1252,-0.1253,-0.1253,-0.1257,-0.1258,-0.1256,-0.1256,-0.1257,-0.1258,-0.1261,-0.1261,-0.1261,-0.1261,0,-0.1186,-0.1193,-0.1193,-0.1201,-0.1203,-0.1201,-0.1208,-0.1209,-0.1214,-0.1216,-0.1216,-0.1225,-0.1228,-0.1236,-0.1241,-0.1245,-0.1245,-0.1247,-0.1243,-0.1244,-0.1241,-0.1242,-0.1229,-0.1229,-0.1242,-0.1242,-0.1242,0,-0.1178,-0.1177,-0.1185,-0.1186,-0.1189,-0.1191,-0.1193,-0.1202,-0.1204,-0.121,-0.121,-0.1214,-0.1217,-0.1223,-0.1229,-0.1234,-0.1237,-0.1233,-0.1238,-0.1236,-0.1238,-0.1238,-0.1238,-0.1231,-0.1231,-0.1231,-0.1231,0,-0.1163,-0.1167,-0.1169,-0.1173,-0.1176,-0.1179,-0.1183,-0.1184,-0.1194,-0.1196,-0.1199,-0.1202,-0.1208,-0.1212,-0.1218,-0.1222,-0.1228,-0.1229,-0.1229,-0.1227,-0.1225,-0.1227,-0.124,-0.1229,-0.123,-0.123,-0.123,-0.123,-0.1151,-0.1151,-0.1157,-0.116,-0.1164,-0.1168,-0.1169,-0.1175,-0.1178,-0.1183,-0.1188,-0.1192,-0.1198,-0.1207,-0.1211,-0.1214,-0.1217,-0.1216,-0.1216,-0.1216,-0.1216,-0.1224,-0.1215,-0.1215,-0.1215,-0.1215,-0.1215,0,-0.1137,-0.1142,-0.1144,-0.115,-0.1153,-0.1159,-0.1164,-0.1166,-0.1169,-0.1174,-0.1178,-0.1183,-0.1187,-0.1195,-0.12,-0.1202,-0.1205,-0.1203,-0.1203,-0.1204,-0.1212,-0.1212,-0.12,-0.12,-0.12,-0.12,-0.12,-0.12,-0.113,-0.1131,-0.1135,-0.1139,-0.1143,-0.1147,-0.1149,-0.1154,-0.1158,-0.1163,-0.1167,-0.1172,-0.1179,-0.1185,-0.119,-0.1192,-0.1194,-0.1191,-0.1194,-0.1202,-0.1203,-0.1205,-0.1205,-0.1191,-0.1191,-0.1186,-0.1186,-0.1186]}]]